Location: 22
(39.7117°N, 89.5929°W)
Time: 16:45:55
(UTC-06:00)

Hubble Space Telescope - Pass Details

Date: 07 October 2023
Orbit: 519 x 522 km, 28.5° (Epoch: 03 December)

Event Time Altitude Azimuth Distance (km) Brightness Sun altitude
Rises 20:37:44 0° 232° (SW) 2,631 4.8 -25.0°
Reaches altitude 10° 20:40:44 10° 209° (SSW) 1,742 3.5 -25.5°
Enters shadow 20:41:03 11° 205° (SSW) 1,675 3.4 -25.6°
